[[{"header":{"parameterUnit":"m.s-1","parameterCategory":2,"la1":30.2991,"la2":30.254,"lo1":-89.0895,"lo2":-89.0444,"dy":0.0017,"dx":0.0017,"nx":28,"ny":28,"refTime":"2025-12-26T09:00:00:Z","depth":"0","parameterNumber":2,"parameterNumberName":"U-component_of_CURRENTS"},"data":[0,0,0,0,0,0,0,0,0,0,0,0,0,0,0,0,0,0,0,0,0,0,0,0,0,0,0,0,0,0,0,0,0,0,0,0,0,0,0,0,0,0,0,0,0,0,0,0,0,0,0,0,0,0,0,0,0,0,0.1527,0.1527,0,0.1531,0.1531,0.1531,0.1532,0.1532,0.1532,0.1532,0.155,0.155,0.155,0,0,0,0,0,0,0,0,0,0,0,0,0,0.1516,0.1516,0.1527,0.1527,0.1527,0.1531,0.1531,0.1531,0.1532,0.1532,0.1532,0.1532,0.155,0.155,0.1551,0,0,0,0,0,0,0,0,0,0,0,0,0,0.152,0.1516,0.1527,0.1529,0.1529,0.1531,0.1531,0.1531,0.1532,0.1532,0.1532,0.1532,0.1549,0.155,0.1551,0.1553,0,0,0.1553,0.1553,0,0,0,0,0,0,0,0,0.1519,0.152,0.1528,0.1528,0.1529,0.1532,0.1534,0.1539,0.1532,0.153,0.1532,0.1532,0.1546,0.1546,0.1546,0.1554,0.1555,0.1553,0.1553,0.1553,0.1553,0,0,0,0,0,0,0,0.1519,0.152,0.1527,0.1528,0.1529,0.1528,0.1529,0.1535,0.1537,0.153,0.153,0.1532,0.1546,0.1545,0.1546,0.1555,0.1553,0.1553,0.1554,0.1554,0.1577,0.1577,0,0,0,0,0,0,0.1521,0.152,0.1527,0.1528,0.1525,0.1529,0.1529,0.153,0.1536,0.1537,0.1532,0.1532,0.1544,0.1545,0.1547,0.1552,0.1553,0.1554,0.1554,0.1577,0.1577,0.1577,0,0,0,0,0,0,0.152,0.1521,0.1527,0.1525,0.1525,0.1529,0.153,0.153,0.1532,0.1538,0.1539,0.1534,0.1544,0.1546,0.1549,0.1553,0.1554,0.1555,0.1577,0.1577,0.1577,0.1562,0,0,0,0,0,0,0.152,0.1521,0.152,0.1525,0.1526,0.1531,0.153,0.153,0.1533,0.1533,0.154,0.1541,0.1544,0.1548,0.1549,0.1554,0.1555,0.1576,0.1577,0.1577,0.1563,0.1562,0.1562,0,0,0,0,0,0.152,0.1512,0.1519,0.152,0.1524,0.1531,0.1532,0.1534,0.1533,0.1535,0.1535,0.1541,0.1552,0.1548,0.155,0.1555,0.1576,0.1577,0.1577,0.1563,0.1562,0.1562,0,0,0,0,0,0,0.1494,0.1511,0.152,0.1515,0.1527,0.1532,0.1525,0.1535,0.1536,0.1532,0.1539,0.1541,0.1549,0.1554,0.1549,0.1564,0.1568,0.1568,0.1556,0.1556,0.1555,0.1549,0.1556,0,0,0,0,0,0.1492,0.1494,0.1513,0.1506,0.1511,0.1521,0.1523,0.153,0.1533,0.1533,0.1538,0.1544,0.1553,0.1554,0.1563,0.1566,0.1573,0.1573,0.1572,0.1572,0.1569,0.1589,0.159,0.1579,0.1579,0.1579,0,0,0.1474,0.1487,0.1484,0.1502,0.1505,0.1506,0.1521,0.1523,0.1523,0.1535,0.1528,0.1544,0.1555,0.156,0.1564,0.1562,0.1577,0.1573,0.1572,0.1569,0.1589,0.159,0.1591,0.158,0.1579,0.1579,0,0,0.1445,0.1457,0.1453,0.1466,0.1482,0.149,0.1494,0.1506,0.1512,0.1515,0.1527,0.1542,0.1548,0.1559,0.1564,0.1568,0.1579,0.1576,0.1563,0.1582,0.1583,0.1584,0.1585,0.1586,0.1571,0.1571,0.1571,0,0.1424,0.1427,0.1451,0.1454,0.1458,0.1483,0.1479,0.1487,0.15,0.1507,0.151,0.1535,0.1546,0.1559,0.156,0.1567,0.1574,0.1562,0.1581,0.1582,0.1584,0.1585,0.1586,0.157,0.157,0.157,0.157,0,0.1402,0.1403,0.1397,0.1412,0.1421,0.142,0.1442,0.1451,0.1462,0.1477,0.1498,0.1516,0.1533,0.1543,0.1549,0.1568,0.1569,0.1582,0.158,0.1584,0.1585,0.1586,0.1569,0.1569,0.157,0.157,0,0,0.135,0.1379,0.1374,0.1382,0.1403,0.1408,0.1409,0.1427,0.1437,0.1454,0.1465,0.1488,0.1512,0.1521,0.1542,0.1556,0.157,0.1569,0.157,0.1566,0.1601,0.1611,0.1614,0.1589,0.1589,0.1589,0.1595,0,0.1323,0.1326,0.1346,0.1338,0.1341,0.1369,0.1373,0.1394,0.1416,0.1434,0.1463,0.1483,0.15,0.1516,0.1533,0.1567,0.1576,0.1566,0.1602,0.1603,0.1609,0.1617,0.165,0.1659,0.1596,0.1597,0.1597,0,0.1289,0.1303,0.1297,0.1321,0.1324,0.1325,0.135,0.1359,0.1393,0.1414,0.144,0.1467,0.1493,0.1509,0.1553,0.1547,0.1569,0.159,0.1592,0.1608,0.1617,0.1648,0.1665,0.1696,0.16,0.16,0.1599,0,0.1247,0.126,0.1259,0.1266,0.1298,0.1303,0.1318,0.1351,0.1367,0.1404,0.1422,0.1457,0.1479,0.1513,0.1557,0.1557,0.1604,0.161,0.1634,0.1635,0.1672,0.1675,0.1722,0.1636,0.1636,0.1636,0.1636,0,0.121,0.1204,0.1243,0.1245,0.1251,0.1281,0.129,0.1317,0.1351,0.137,0.1412,0.1434,0.1484,0.1518,0.1552,0.1599,0.16,0.1632,0.1642,0.1667,0.167,0.1707,0.1686,0.1636,0.1636,0.1636,0.1636,0,0.1158,0.118,0.1183,0.1219,0.123,0.1233,0.1268,0.1283,0.1322,0.1347,0.1358,0.1415,0.1467,0.1514,0.1571,0.1595,0.1622,0.1653,0.167,0.1682,0.173,0.1706,0.161,0.1582,0.1675,0.1676,0.1676,0,0.1129,0.1128,0.116,0.1165,0.1181,0.1196,0.1211,0.1257,0.1276,0.1337,0.1346,0.1404,0.1449,0.1534,0.1605,0.1665,0.1631,0.171,0.1718,0.1738,0.1719,0.1601,0.1576,0.1756,0.1757,0.1758,0.1759,0,0.1079,0.1091,0.1105,0.112,0.1134,0.1154,0.118,0.1193,0.1249,0.1282,0.1333,0.1374,0.1478,0.1567,0.165,0.1693,0.1673,0.1726,0.1755,0.1789,0.1655,0.1633,0.173,0.1766,0.1765,0.1764,0.1764,0.1764,0.1036,0.1036,0.1057,0.1075,0.1091,0.1115,0.1125,0.1163,0.1196,0.1252,0.13,0.1375,0.1519,0.1656,0.1714,0.1834,0.1713,0.1845,0.1813,0.169,0.1665,0.1763,0.1806,0.1806,0.1806,0.1805,0.1805,0,0.0982,0.0999,0.1011,0.1034,0.1045,0.1071,0.1107,0.1122,0.1158,0.1227,0.1278,0.1435,0.1575,0.1716,0.1891,0.1934,0.186,0.192,0.1797,0.1769,0.19,0.1913,0.1972,0.1972,0.1972,0.1972,0.1972,0.1972,0.0952,0.0952,0.0976,0.0988,0.1006,0.1021,0.1041,0.1073,0.1123,0.1214,0.1302,0.1384,0.1592,0.1838,0.2008,0.2005,0.1911,0.1844,0.1789,0.1958,0.1949,0.1941,0.1953,0.202,0.202,0.1647,0.1644,0.1642]},{"header":{"parameterUnit":"m.s-1","parameterCategory":2,"la1":30.2991,"la2":30.254,"lo1":-89.0895,"lo2":-89.0444,"dy":0.0017,"dx":0.0017,"nx":28,"ny":28,"refTime":"2025-12-26T09:00:00:Z","depth":"0","parameterNumber":3,"parameterNumberName":"V-component_of_CURRENTS"},"data":[0,0,0,0,0,0,0,0,0,0,0,0,0,0,0,0,0,0,0,0,0,0,0,0,0,0,0,0,0,0,0,0,0,0,0,0,0,0,0,0,0,0,0,0,0,0,0,0,0,0,0,0,0,0,0,0,0,0,-0.0531,-0.0531,0,-0.0546,-0.0547,-0.0547,-0.0579,-0.0579,-0.058,-0.058,-0.0596,-0.0596,-0.0596,0,0,0,0,0,0,0,0,0,0,0,0,0,-0.0532,-0.0532,-0.0531,-0.0531,-0.0531,-0.0546,-0.0547,-0.0547,-0.0579,-0.0579,-0.058,-0.0581,-0.0596,-0.0596,-0.0596,0,0,0,0,0,0,0,0,0,0,0,0,0,-0.054,-0.0532,-0.0531,-0.0547,-0.0549,-0.0546,-0.0547,-0.0547,-0.0579,-0.0579,-0.058,-0.0581,-0.0596,-0.0596,-0.0596,-0.0583,0,0,-0.0596,-0.0596,0,0,0,0,0,0,0,0,-0.0539,-0.054,-0.0545,-0.0546,-0.0548,-0.056,-0.0553,-0.0559,-0.0579,-0.057,-0.058,-0.0581,-0.0582,-0.0583,-0.0588,-0.0584,-0.0585,-0.0596,-0.0596,-0.0596,-0.0596,0,0,0,0,0,0,0,-0.0539,-0.054,-0.0539,-0.0545,-0.0546,-0.0554,-0.0556,-0.0554,-0.0574,-0.057,-0.0572,-0.057,-0.0583,-0.0588,-0.0588,-0.0585,-0.0596,-0.0596,-0.0596,-0.0596,-0.0558,-0.0557,0,0,0,0,0,0,-0.0532,-0.0539,-0.0539,-0.054,-0.0543,-0.0554,-0.0556,-0.0557,-0.0574,-0.0576,-0.057,-0.0572,-0.0587,-0.0588,-0.0589,-0.0567,-0.0596,-0.0596,-0.0596,-0.0559,-0.0558,-0.0557,0,0,0,0,0,0,-0.0532,-0.0532,-0.0538,-0.0538,-0.0539,-0.0553,-0.0553,-0.0557,-0.056,-0.0573,-0.0576,-0.0569,-0.0588,-0.0589,-0.0581,-0.0568,-0.0596,-0.0596,-0.056,-0.0559,-0.0557,-0.0527,0,0,0,0,0,0,-0.0532,-0.0532,-0.0526,-0.0537,-0.0539,-0.0525,-0.0553,-0.0556,-0.0556,-0.0559,-0.0573,-0.0575,-0.0589,-0.058,-0.0581,-0.0569,-0.0596,-0.0561,-0.0559,-0.0558,-0.0529,-0.0525,-0.0521,0,0,0,0,0,-0.0532,-0.0519,-0.0526,-0.0526,-0.0532,-0.0524,-0.0525,-0.0539,-0.0555,-0.0547,-0.0559,-0.0575,-0.0568,-0.0579,-0.058,-0.0568,-0.0562,-0.056,-0.0558,-0.0531,-0.0526,-0.0521,0,0,0,0,0,0,-0.0515,-0.0521,-0.0529,-0.0519,-0.0517,-0.0529,-0.0522,-0.0533,-0.0537,-0.0544,-0.0562,-0.0564,-0.0554,-0.0559,-0.0571,-0.0549,-0.0567,-0.0565,-0.0547,-0.0542,-0.0537,-0.0534,-0.0596,0,0,0,0,0,-0.0508,-0.0502,-0.0507,-0.0498,-0.0496,-0.0509,-0.0507,-0.0517,-0.0523,-0.0527,-0.0536,-0.0543,-0.0544,-0.0542,-0.0543,-0.0528,-0.0533,-0.0519,-0.0515,-0.0511,-0.0508,-0.0501,-0.0496,-0.0549,-0.0549,-0.0549,0,0,-0.0499,-0.0501,-0.0498,-0.0493,-0.0497,-0.0489,-0.051,-0.0504,-0.0498,-0.0526,-0.0519,-0.0529,-0.0536,-0.0525,-0.052,-0.0528,-0.0497,-0.0508,-0.0505,-0.0504,-0.0498,-0.0493,-0.0489,-0.0547,-0.0548,-0.0548,0,0,-0.0477,-0.0479,-0.0468,-0.0465,-0.0463,-0.0469,-0.0464,-0.0471,-0.0474,-0.0465,-0.0487,-0.0486,-0.0484,-0.0489,-0.0491,-0.046,-0.0476,-0.0459,-0.0434,-0.0427,-0.0423,-0.042,-0.0415,-0.0411,-0.0455,-0.0455,-0.0455,0,-0.0465,-0.0455,-0.0461,-0.045,-0.0446,-0.0458,-0.0446,-0.0444,-0.0448,-0.0443,-0.0456,-0.0456,-0.0467,-0.0454,-0.0449,-0.0451,-0.0451,-0.0456,-0.0422,-0.0419,-0.0416,-0.0412,-0.0408,-0.0453,-0.0453,-0.0454,-0.0454,0,-0.0438,-0.0429,-0.042,-0.0413,-0.0408,-0.0396,-0.0399,-0.039,-0.0397,-0.0399,-0.0387,-0.0402,-0.0402,-0.0404,-0.042,-0.0401,-0.0409,-0.0421,-0.0439,-0.0409,-0.0406,-0.0403,-0.0451,-0.0451,-0.0452,-0.0452,0,0,-0.0415,-0.0403,-0.04,-0.0392,-0.039,-0.0381,-0.0366,-0.0352,-0.034,-0.0341,-0.0324,-0.0332,-0.0343,-0.0346,-0.0364,-0.0362,-0.0345,-0.0382,-0.0382,-0.0382,-0.033,-0.0337,-0.0334,-0.0353,-0.0352,-0.0352,-0.0336,0,-0.0391,-0.0364,-0.0367,-0.0342,-0.033,-0.0336,-0.0321,-0.0312,-0.0307,-0.029,-0.0298,-0.0294,-0.0318,-0.0324,-0.0322,-0.0343,-0.0336,-0.0349,-0.0355,-0.0355,-0.0369,-0.033,-0.0315,-0.0299,-0.0333,-0.0333,-0.0332,0,-0.0365,-0.035,-0.0324,-0.0309,-0.0305,-0.0291,-0.0273,-0.026,-0.0242,-0.0242,-0.0235,-0.0245,-0.0243,-0.0271,-0.0277,-0.0285,-0.0301,-0.0317,-0.0317,-0.0332,-0.0355,-0.0334,-0.0293,-0.0294,-0.0327,-0.0328,-0.0328,0,-0.0345,-0.032,-0.0298,-0.0293,-0.0277,-0.0264,-0.0255,-0.0241,-0.0227,-0.0211,-0.0203,-0.02,-0.0204,-0.0217,-0.0251,-0.0263,-0.0259,-0.0278,-0.0294,-0.0295,-0.0287,-0.0288,-0.0252,-0.0272,-0.0273,-0.0273,-0.0273,0,-0.0319,-0.0297,-0.0284,-0.0269,-0.0241,-0.0242,-0.0214,-0.0204,-0.0189,-0.0167,-0.0176,-0.0165,-0.0193,-0.0197,-0.0226,-0.0246,-0.0235,-0.028,-0.0287,-0.0276,-0.0276,-0.0283,-0.0302,-0.0272,-0.0272,-0.0272,-0.0272,0,-0.0293,-0.0286,-0.0258,-0.0238,-0.023,-0.0209,-0.0189,-0.0169,-0.0163,-0.0135,-0.0131,-0.0131,-0.0138,-0.0164,-0.0187,-0.0217,-0.0254,-0.0248,-0.0234,-0.024,-0.0263,-0.0281,-0.0325,-0.0343,-0.0258,-0.0258,-0.0258,0,-0.027,-0.0255,-0.0233,-0.0218,-0.0204,-0.0179,-0.0162,-0.0153,-0.0136,-0.0115,-0.0099,-0.0097,-0.0089,-0.0121,-0.0169,-0.0203,-0.0244,-0.0224,-0.0244,-0.025,-0.0275,-0.0339,-0.0355,-0.0219,-0.0219,-0.0218,-0.0218,0,-0.0227,-0.0226,-0.0207,-0.0183,-0.0161,-0.0139,-0.0116,-0.01,-0.009,-0.0069,-0.0044,-0.0034,-0.0061,-0.0084,-0.0139,-0.0173,-0.0247,-0.022,-0.0223,-0.0234,-0.0304,-0.0329,-0.0248,-0.0216,-0.0216,-0.0216,-0.0216,-0.0216,-0.0194,-0.0179,-0.0166,-0.0141,-0.0122,-0.01,-0.0075,-0.0056,-0.0027,0.0016,0.0012,0.005,0.0016,-0.0053,-0.0121,-0.0193,-0.0238,-0.021,-0.023,-0.0292,-0.0315,-0.0233,-0.0214,-0.0215,-0.0215,-0.0215,-0.0215,0,-0.0151,-0.0144,-0.0122,-0.0099,-0.0079,-0.0076,-0.0044,-0.0014,0.0025,0.0068,0.0102,0.015,0.0092,0.0016,-0.0076,-0.016,-0.0247,-0.0208,-0.0273,-0.0287,-0.0192,-0.0193,-0.0173,-0.0173,-0.0173,-0.0173,-0.0173,-0.0173,-0.0126,-0.0103,-0.01,-0.0063,-0.005,-0.001,0.001,0.0055,0.0094,0.0179,0.0236,0.0291,0.0349,0.0112,-0.0032,-0.0114,-0.0222,-0.0285,-0.032,-0.0217,-0.0218,-0.0219,-0.0223,-0.0209,-0.021,-0.0417,-0.0418,-0.042]}],[{"header":{"parameterUnit":"m.s-1","parameterCategory":2,"la1":30.2991,"la2":30.254,"lo1":-89.0895,"lo2":-89.0444,"dy":0.0017,"dx":0.0017,"nx":28,"ny":28,"refTime":"2025-12-26T09:00:00:Z","depth":"2","parameterNumber":2,"parameterNumberName":"U-component_of_CURRENTS"},"data":[0,0,0,0,0,0,0,0,0,0,0,0,0,0,0,0,0,0,0,0,0,0,0,0,0,0,0,0,0,0,0,0,0,0,0,0,0,0,0,0,0,0,0,0,0,0,0,0,0,0,0,0,0,0,0,0,0,0,-0.0474,-0.0474,0,-0.0509,-0.0509,-0.051,-0.0523,-0.0523,-0.0523,-0.0523,-0.0563,-0.0564,-0.0565,0,0,0,0,0,0,0,0,0,0,0,0,0,-0.0473,-0.0473,-0.0474,-0.0474,-0.0475,-0.0509,-0.0509,-0.051,-0.0523,-0.0523,-0.0523,-0.0523,-0.0562,-0.0564,-0.0565,0,0,0,0,0,0,0,0,0,0,0,0,0,-0.0488,-0.0473,-0.0474,-0.0485,-0.0486,-0.0509,-0.0509,-0.051,-0.0523,-0.0523,-0.0523,-0.0523,-0.0562,-0.0564,-0.0566,-0.0583,0,0,-0.0571,-0.0572,0,0,0,0,0,0,0,0,-0.0487,-0.0488,-0.0483,-0.0484,-0.0485,-0.051,-0.0524,-0.0534,-0.0524,-0.051,-0.0523,-0.0522,-0.0545,-0.0548,-0.0557,-0.0585,-0.0587,-0.0571,-0.0573,-0.0573,-0.0574,0,0,0,0,0,0,0,-0.0486,-0.0487,-0.0489,-0.0483,-0.0485,-0.0506,-0.0508,-0.0526,-0.053,-0.0512,-0.0512,-0.0514,-0.0546,-0.0555,-0.0558,-0.0587,-0.0571,-0.0573,-0.0574,-0.0575,-0.0584,-0.0583,0,0,0,0,0,0,-0.0477,-0.0486,-0.0488,-0.049,-0.0484,-0.0506,-0.0508,-0.0504,-0.053,-0.0533,-0.0515,-0.0515,-0.0552,-0.0556,-0.056,-0.0524,-0.0573,-0.0575,-0.0576,-0.0584,-0.0583,-0.0582,0,0,0,0,0,0,-0.0477,-0.0477,-0.0486,-0.0488,-0.0491,-0.0506,-0.0501,-0.0504,-0.0498,-0.0532,-0.0535,-0.0504,-0.0552,-0.0557,-0.0558,-0.0528,-0.0576,-0.0578,-0.0585,-0.0584,-0.0583,-0.049,0,0,0,0,0,0,-0.0477,-0.0476,-0.0463,-0.0487,-0.049,-0.0479,-0.0502,-0.0505,-0.0501,-0.0501,-0.0524,-0.0528,-0.0552,-0.0555,-0.056,-0.0531,-0.0579,-0.0587,-0.0585,-0.0583,-0.0494,-0.0486,-0.0478,0,0,0,0,0,-0.0476,-0.0454,-0.0462,-0.0461,-0.0473,-0.0478,-0.0481,-0.0492,-0.05,-0.0488,-0.0506,-0.0527,-0.0548,-0.0556,-0.0562,-0.0533,-0.0587,-0.0585,-0.0583,-0.0498,-0.0487,-0.0479,0,0,0,0,0,0,-0.0444,-0.0455,-0.0463,-0.0444,-0.0452,-0.0479,-0.0465,-0.0481,-0.0487,-0.0482,-0.0519,-0.0524,-0.0513,-0.0539,-0.0547,-0.0532,-0.057,-0.0569,-0.0503,-0.0493,-0.0485,-0.0469,-0.0581,0,0,0,0,0,-0.0432,-0.0416,-0.0436,-0.0418,-0.0418,-0.0441,-0.0442,-0.0451,-0.0464,-0.0466,-0.0485,-0.0502,-0.0513,-0.0514,-0.0531,-0.0524,-0.0529,-0.0509,-0.0501,-0.0494,-0.0486,-0.0476,-0.0466,-0.0576,-0.0576,-0.0576,0,0,-0.0414,-0.0416,-0.0408,-0.041,-0.0415,-0.0407,-0.0439,-0.0429,-0.0421,-0.047,-0.0455,-0.0475,-0.0506,-0.0495,-0.0492,-0.0509,-0.0461,-0.0492,-0.0485,-0.0481,-0.0473,-0.0462,-0.0452,-0.0574,-0.0575,-0.0575,0,0,-0.0372,-0.0372,-0.0346,-0.0349,-0.035,-0.0366,-0.0359,-0.0376,-0.0377,-0.0374,-0.0402,-0.0402,-0.0424,-0.0433,-0.0444,-0.0404,-0.0421,-0.0408,-0.0351,-0.0341,-0.0332,-0.0324,-0.029,-0.028,-0.0402,-0.0402,-0.0401,0,-0.035,-0.0325,-0.0339,-0.0318,-0.0314,-0.0343,-0.0321,-0.0328,-0.0343,-0.034,-0.0353,-0.0371,-0.0393,-0.038,-0.0363,-0.0383,-0.0375,-0.0382,-0.0329,-0.0321,-0.0314,-0.0283,-0.0273,-0.0397,-0.0397,-0.0398,-0.0398,0,-0.0296,-0.0275,-0.0257,-0.0243,-0.0239,-0.0222,-0.0239,-0.0232,-0.0242,-0.0256,-0.0244,-0.0272,-0.0283,-0.0286,-0.0311,-0.0273,-0.028,-0.0319,-0.0348,-0.0297,-0.0268,-0.0259,-0.039,-0.0392,-0.0393,-0.0394,0,0,-0.0251,-0.0225,-0.0218,-0.0204,-0.0199,-0.0194,-0.0171,-0.0167,-0.0154,-0.0161,-0.0143,-0.0153,-0.017,-0.0182,-0.021,-0.0198,-0.0135,-0.0229,-0.023,-0.0186,-0.0086,-0.0032,-0.0017,-0.0163,-0.0161,-0.016,-0.0075,0,-0.0204,-0.0156,-0.0155,-0.0112,-0.0093,-0.0108,-0.009,-0.0089,-0.0095,-0.0085,-0.0102,-0.0098,-0.0131,-0.0129,-0.0119,-0.0144,-0.0111,-0.0153,-0.0151,-0.0151,-0.0101,-0.0005,-0.0087,-0.0013,-0.0066,-0.0065,-0.0064,0,-0.0153,-0.0129,-0.008,-0.0056,-0.0048,-0.0029,-0.0011,0.0002,0.0005,0.0002,0.0008,-0.0014,0.0004,-0.0038,-0.0018,-0.0042,-0.0044,-0.0058,-0.0056,-0.0033,-0.0079,-0.008,0.0004,-0.005,-0.0051,-0.0052,-0.0053,0,-0.0124,-0.0079,-0.004,-0.003,-0.0007,0.0014,0.0025,0.0032,0.0042,0.006,0.0068,0.0076,0.0082,0.0078,0.0058,0.0025,0.0083,0.0023,0.008,0.0083,0.0001,-0.0005,0.006,0.0059,0.0059,0.0059,0.0059,0,-0.0081,-0.005,-0.0023,-0.0003,0.0037,0.0046,0.0082,0.009,0.0106,0.0126,0.0117,0.0138,0.011,0.0128,0.0105,0.0143,0.0125,0.0125,0.012,0.0034,0.0032,-0.0029,-0.0041,0.0062,0.0061,0.0061,0.006,0,-0.0057,-0.0036,0.0003,0.0039,0.0051,0.0079,0.0108,0.0128,0.0146,0.0173,0.0184,0.0199,0.0235,0.0223,0.0226,0.0215,0.0228,0.0244,0.0168,0.0154,0.0212,0.0204,0.0325,0.0328,0.033,0.0332,0.0334,0,-0.0041,-0.0015,0.0026,0.0045,0.0063,0.01,0.012,0.0144,0.0163,0.021,0.0227,0.0279,0.0292,0.0346,0.0341,0.0356,0.0323,0.0312,0.0236,0.0263,0.0244,0.0232,0.0221,0.0163,0.0163,0.0163,0.0163,0,-0.0016,-0.0002,0.0023,0.0061,0.009,0.0117,0.0152,0.0168,0.0201,0.0226,0.0277,0.0295,0.0356,0.0347,0.0389,0.0371,0.0302,0.032,0.0362,0.0121,0.012,0.0098,0.0091,0.0164,0.0164,0.0164,0.0164,0.0164,-0.0006,0.001,0.004,0.0074,0.0099,0.0124,0.0135,0.0168,0.0197,0.0219,0.0264,0.0272,0.0269,0.03,0.0332,0.0375,0.0372,0.0315,0.0309,0.0304,0.0283,0.0288,0.0361,0.0362,0.0363,0.0363,0.0364,0,0.0004,0.002,0.0052,0.0079,0.009,0.0116,0.0144,0.0136,0.0154,0.0195,0.0211,0.0171,0.0172,0.0222,0.0286,0.0323,0.0262,0.0316,0.0201,0.0199,0.0197,0.0166,0.0215,0.0216,0.0216,0.0216,0,0,0.0013,0.0035,0.0051,0.0065,0.0078,0.008,0.0088,0.009,0.01,0.0107,0.0122,0.0084,0.0141,0.0136,0.0161,0.0213,0.0198,0.0205,0.0308,0.0163,0.0161,0.017,0.0119,0,0,0,0,0]},{"header":{"parameterUnit":"m.s-1","parameterCategory":2,"la1":30.2991,"la2":30.254,"lo1":-89.0895,"lo2":-89.0444,"dy":0.0017,"dx":0.0017,"nx":28,"ny":28,"refTime":"2025-12-26T09:00:00:Z","depth":"2","parameterNumber":3,"parameterNumberName":"V-component_of_CURRENTS"},"data":[0,0,0,0,0,0,0,0,0,0,0,0,0,0,0,0,0,0,0,0,0,0,0,0,0,0,0,0,0,0,0,0,0,0,0,0,0,0,0,0,0,0,0,0,0,0,0,0,0,0,0,0,0,0,0,0,0,0,0.05,0.0499,0,0.046,0.0459,0.0459,0.0417,0.0417,0.0416,0.0416,0.0375,0.0375,0.0374,0,0,0,0,0,0,0,0,0,0,0,0,0,0.0565,0.0563,0.05,0.0499,0.0499,0.046,0.0459,0.0458,0.0417,0.0417,0.0416,0.0416,0.0376,0.0375,0.0374,0,0,0,0,0,0,0,0,0,0,0,0,0,0.0531,0.0563,0.05,0.0474,0.0471,0.046,0.0459,0.0458,0.0418,0.0417,0.0416,0.0415,0.0376,0.0375,0.0374,0.0385,0,0,0.0371,0.0371,0,0,0,0,0,0,0,0,0.0533,0.0529,0.0478,0.0476,0.0473,0.0443,0.0467,0.0434,0.0418,0.0438,0.0416,0.0415,0.0399,0.0396,0.039,0.0383,0.0381,0.0371,0.0371,0.0371,0.037,0,0,0,0,0,0,0,0.0535,0.053,0.0483,0.0478,0.0474,0.0472,0.0467,0.0461,0.0423,0.0436,0.0433,0.0429,0.0397,0.0391,0.0389,0.038,0.0371,0.0371,0.037,0.037,0.0334,0.0333,0,0,0,0,0,0,0.0541,0.0532,0.0485,0.0482,0.0502,0.0472,0.0465,0.0453,0.0423,0.0418,0.043,0.0427,0.0393,0.039,0.0387,0.0352,0.0371,0.037,0.0369,0.0334,0.0334,0.0333,0,0,0,0,0,0,0.0542,0.0536,0.0486,0.0507,0.0501,0.0471,0.0458,0.0453,0.0429,0.0418,0.0413,0.041,0.0392,0.0388,0.0362,0.0352,0.0369,0.0369,0.0335,0.0334,0.0334,0.0313,0,0,0,0,0,0,0.0544,0.0537,0.0527,0.0507,0.05,0.047,0.0459,0.0452,0.043,0.0425,0.04,0.0397,0.0391,0.0363,0.0361,0.0351,0.0368,0.0335,0.0334,0.0334,0.0314,0.0311,0.0309,0,0,0,0,0,0.0546,0.0534,0.0526,0.052,0.0487,0.0469,0.0465,0.0442,0.0429,0.0418,0.0396,0.0396,0.0357,0.0362,0.036,0.0349,0.0336,0.0335,0.0334,0.0315,0.0312,0.0309,0,0,0,0,0,0,0.0556,0.0529,0.0519,0.0499,0.0482,0.0462,0.045,0.0435,0.0409,0.04,0.0388,0.0383,0.0357,0.0357,0.0363,0.0337,0.0348,0.0346,0.0334,0.0332,0.0329,0.0334,0.0367,0,0,0,0,0,0.0555,0.0538,0.0516,0.05,0.049,0.0468,0.0456,0.044,0.0418,0.0405,0.0387,0.037,0.0356,0.0345,0.0334,0.0319,0.0318,0.0313,0.031,0.0308,0.031,0.03,0.0296,0.033,0.033,0.033,0,0,0.0556,0.0539,0.0529,0.0501,0.0485,0.047,0.0458,0.0435,0.042,0.0406,0.0375,0.0359,0.0349,0.0329,0.0319,0.0325,0.0295,0.0307,0.0305,0.0309,0.0298,0.0295,0.0292,0.0329,0.033,0.033,0,0,0.0555,0.0531,0.0519,0.0504,0.0478,0.0464,0.0455,0.0426,0.0408,0.0382,0.0367,0.0344,0.0322,0.0311,0.0305,0.0286,0.0283,0.028,0.0271,0.026,0.0257,0.0255,0.0238,0.0235,0.0279,0.0279,0.0279,0,0.0556,0.0538,0.0514,0.0501,0.0488,0.046,0.0447,0.0428,0.0393,0.038,0.037,0.0328,0.0317,0.0295,0.0284,0.0281,0.027,0.0281,0.0257,0.0254,0.0252,0.0236,0.0233,0.0278,0.0278,0.0278,0.0278,0,0.055,0.0533,0.0524,0.0496,0.048,0.0463,0.0436,0.0412,0.0388,0.037,0.0336,0.0316,0.0293,0.0284,0.0275,0.0253,0.0247,0.0254,0.0264,0.0248,0.0232,0.0228,0.0276,0.0277,0.0277,0.0277,0,0,0.0551,0.0525,0.052,0.0513,0.0475,0.0464,0.0435,0.0406,0.0387,0.0352,0.0329,0.0298,0.0281,0.0272,0.0257,0.0243,0.0212,0.0237,0.0237,0.0221,0.0177,0.0187,0.0184,0.021,0.0209,0.0209,0.0168,0,0.055,0.0537,0.0518,0.0501,0.0491,0.0459,0.0438,0.0408,0.0377,0.0347,0.0319,0.0292,0.0279,0.0261,0.0243,0.0219,0.0203,0.0222,0.0196,0.0195,0.0206,0.0181,0.0172,0.0137,0.0165,0.0164,0.0164,0,0.0544,0.0539,0.0529,0.0508,0.05,0.0485,0.0446,0.0424,0.0377,0.0352,0.0316,0.029,0.0252,0.0251,0.0202,0.021,0.0192,0.0177,0.0175,0.0193,0.0199,0.016,0.013,0.0158,0.0159,0.0159,0.0159,0,0.056,0.0541,0.0538,0.0529,0.0503,0.0491,0.047,0.0426,0.0401,0.0353,0.0328,0.0284,0.0254,0.0226,0.018,0.0188,0.0129,0.0144,0.0138,0.0138,0.0131,0.0132,0.012,0.012,0.012,0.012,0.012,0,0.0562,0.0556,0.0548,0.0546,0.054,0.0511,0.0487,0.046,0.041,0.038,0.0333,0.0303,0.0245,0.02,0.0173,0.0134,0.0123,0.0131,0.0128,0.0123,0.0123,0.0148,0.0152,0.0118,0.0119,0.0119,0.0119,0,0.057,0.0564,0.0565,0.0553,0.0549,0.0543,0.0502,0.0482,0.0433,0.0391,0.0373,0.0305,0.0248,0.019,0.0137,0.0125,0.0093,0.0085,0.0078,0.0076,0.0112,0.0115,0.0082,0.0082,0.0082,0.0082,0.0082,0,0.0571,0.0573,0.0579,0.0584,0.0579,0.0563,0.0549,0.05,0.0473,0.0396,0.038,0.0308,0.0288,0.0204,0.0153,0.0106,0.008,0.0057,0.0086,0.0107,0.0108,0.0111,0.0114,0.0058,0.0058,0.0058,0.0058,0,0.0574,0.0578,0.0585,0.06,0.0599,0.0594,0.0569,0.0554,0.049,0.0468,0.0433,0.042,0.0326,0.0259,0.0171,0.0146,0.0066,0.0056,0.0065,0.0079,0.0084,0.0085,0.0089,0.0056,0.0056,0.0057,0.0057,0.0057,0.0572,0.0583,0.0595,0.0609,0.0615,0.0621,0.0624,0.0604,0.0591,0.0544,0.0504,0.0452,0.0293,0.0194,0.0136,0.0083,0.0113,0.0062,0.0062,0.0063,0.0077,0.0083,0.0057,0.0057,0.0057,0.0057,0.0057,0,0.0555,0.0571,0.0596,0.062,0.064,0.063,0.0631,0.0629,0.0644,0.0594,0.0577,0.037,0.0296,0.0151,0.0101,0.0074,0.0083,0.0027,0.0019,0.0021,0.0023,0.0036,0.0004,0.0004,0.0003,0.0003,0,0,0.0545,0.0563,0.0587,0.0629,0.0647,0.066,0.0669,0.0678,0.0654,0.0603,0.0525,0.0422,0.0258,0.0142,0.0075,0.0062,0.0069,0.0065,0.0115,0.0121,0.0123,0.005,0.0073,0,0,0,0,0]}],[{"header":{"parameterUnit":"m.s-1","parameterCategory":2,"la1":30.2991,"la2":30.254,"lo1":-89.0895,"lo2":-89.0444,"dy":0.0017,"dx":0.0017,"nx":28,"ny":28,"refTime":"2025-12-26T09:00:00:Z","depth":"4","parameterNumber":2,"parameterNumberName":"U-component_of_CURRENTS"},"data":[0,0,0,0,0,0,0,0,0,0,0,0,0,0,0,0,0,0,0,0,0,0,0,0,0,0,0,0,0,0,0,0,0,0,0,0,0,0,0,0,0,0,0,0,0,0,0,0,0,0,0,0,0,0,0,0,0,0,-0.0284,-0.0284,0,-0.0302,-0.0303,-0.0303,-0.0303,-0.0303,-0.0303,-0.0303,-0.0354,-0.0356,-0.0357,0,0,0,0,0,0,0,0,0,0,0,0,0,-0.0265,-0.0265,-0.0284,-0.0284,-0.0284,-0.0302,-0.0303,-0.0303,-0.0303,-0.0303,-0.0303,-0.0303,-0.0354,-0.0355,-0.0357,0,0,0,0,0,0,0,0,0,0,0,0,0,-0.0278,-0.0266,-0.0284,-0.0287,-0.0287,-0.0302,-0.0303,-0.0303,-0.0303,-0.0303,-0.0303,-0.0302,-0.0353,-0.0355,-0.0358,-0.0379,0,0,-0.0365,-0.0366,0,0,0,0,0,0,0,0,-0.0277,-0.0278,-0.0286,-0.0287,-0.0287,-0.03,-0.0315,-0.033,-0.0304,-0.0297,-0.0303,-0.0302,-0.0339,-0.0343,-0.0347,-0.0382,-0.0384,-0.0365,-0.0366,-0.0368,-0.0368,0,0,0,0,0,0,0,-0.0276,-0.0278,-0.0291,-0.0286,-0.0287,-0.0292,-0.0294,-0.0318,-0.0321,-0.0298,-0.0298,-0.03,-0.034,-0.0344,-0.0348,-0.0385,-0.0365,-0.0367,-0.0369,-0.037,-0.0494,-0.0496,0,0,0,0,0,0,-0.0273,-0.0277,-0.0291,-0.0292,-0.0281,-0.0293,-0.0294,-0.0296,-0.032,-0.0323,-0.03,-0.03,-0.034,-0.0345,-0.035,-0.0435,-0.0368,-0.037,-0.0371,-0.0492,-0.0494,-0.0496,0,0,0,0,0,0,-0.0273,-0.0274,-0.029,-0.0285,-0.0287,-0.0294,-0.0296,-0.0297,-0.0304,-0.0321,-0.0325,-0.0307,-0.034,-0.0347,-0.0376,-0.0435,-0.0371,-0.0373,-0.049,-0.0493,-0.0495,-0.0569,0,0,0,0,0,0,-0.0272,-0.0274,-0.0276,-0.0284,-0.0287,-0.0294,-0.0296,-0.0298,-0.0306,-0.0306,-0.0328,-0.0332,-0.0341,-0.0373,-0.0379,-0.0437,-0.0375,-0.0487,-0.0491,-0.0494,-0.0564,-0.0574,-0.0582,0,0,0,0,0,-0.0271,-0.0273,-0.0276,-0.0278,-0.0289,-0.0294,-0.0296,-0.0299,-0.0307,-0.0306,-0.0329,-0.0332,-0.04,-0.0376,-0.0382,-0.0443,-0.0486,-0.049,-0.0494,-0.056,-0.0572,-0.0582,0,0,0,0,0,0,-0.0265,-0.0274,-0.0277,-0.0281,-0.0285,-0.0294,-0.0298,-0.0304,-0.0321,-0.0332,-0.0344,-0.035,-0.0403,-0.0406,-0.0378,-0.0489,-0.0449,-0.0454,-0.0497,-0.0508,-0.0517,-0.0506,-0.0377,0,0,0,0,0,-0.0266,-0.027,-0.0277,-0.028,-0.0284,-0.0294,-0.0298,-0.0306,-0.0322,-0.0329,-0.0347,-0.0381,-0.0426,-0.0449,-0.0475,-0.0529,-0.0503,-0.0575,-0.0584,-0.0592,-0.0588,-0.0607,-0.0616,-0.051,-0.051,-0.051,0,0,-0.0265,-0.027,-0.0272,-0.0279,-0.0286,-0.0288,-0.0295,-0.0309,-0.0323,-0.0335,-0.0364,-0.0406,-0.0444,-0.0507,-0.0533,-0.0518,-0.0605,-0.0597,-0.0604,-0.0595,-0.0612,-0.0622,-0.0631,-0.0513,-0.0512,-0.0512,0,0,-0.0262,-0.027,-0.0271,-0.0277,-0.029,-0.0294,-0.0298,-0.0316,-0.0336,-0.0375,-0.0401,-0.0464,-0.0517,-0.0562,-0.0594,-0.0665,-0.0646,-0.0694,-0.0742,-0.0761,-0.0769,-0.0776,-0.0733,-0.0736,-0.0707,-0.0707,-0.0707,0,-0.026,-0.0263,-0.0272,-0.0276,-0.0282,-0.0295,-0.03,-0.0321,-0.0349,-0.0374,-0.039,-0.051,-0.0544,-0.0637,-0.068,-0.0686,-0.0674,-0.0699,-0.0771,-0.0778,-0.0784,-0.0738,-0.074,-0.0711,-0.071,-0.071,-0.071,0,-0.0257,-0.0262,-0.0265,-0.027,-0.0277,-0.0287,-0.0312,-0.0332,-0.0368,-0.0397,-0.0495,-0.0565,-0.0643,-0.0684,-0.0714,-0.0802,-0.0769,-0.0774,-0.074,-0.0799,-0.0747,-0.0747,-0.0717,-0.0715,-0.0714,-0.0713,0,0,-0.0247,-0.0259,-0.026,-0.0263,-0.0281,-0.0284,-0.0314,-0.0342,-0.0373,-0.0447,-0.0509,-0.0636,-0.07,-0.0741,-0.0809,-0.0845,-0.0886,-0.0847,-0.0846,-0.0795,-0.0891,-0.0756,-0.0743,-0.0917,-0.0918,-0.0919,-0.0828,0,-0.0241,-0.0241,-0.0255,-0.0258,-0.0258,-0.0285,-0.0313,-0.0349,-0.0397,-0.0456,-0.0567,-0.0661,-0.0718,-0.0803,-0.0851,-0.0881,-0.0897,-0.0907,-0.0848,-0.0844,-0.0712,-0.0743,-0.0924,-0.0828,-0.0828,-0.0828,-0.0828,0,-0.0233,-0.0233,-0.024,-0.0257,-0.0264,-0.0285,-0.0328,-0.0366,-0.0446,-0.0501,-0.0614,-0.0684,-0.08,-0.0836,-0.09,-0.0911,-0.0912,-0.0914,-0.091,-0.0758,-0.0712,-0.0763,-0.0829,-0.0829,-0.0829,-0.0829,-0.0829,0,-0.0213,-0.0221,-0.0227,-0.0234,-0.026,-0.0294,-0.0331,-0.0394,-0.0432,-0.056,-0.0594,-0.0725,-0.0799,-0.0849,-0.0855,-0.0904,-0.0854,-0.0912,-0.0772,-0.0759,-0.0875,-0.0868,-0.0929,-0.0929,-0.0929,-0.093,-0.093,0,-0.02,-0.0201,-0.0231,-0.0237,-0.0264,-0.031,-0.0368,-0.0418,-0.0503,-0.0531,-0.0654,-0.0668,-0.0812,-0.0793,-0.0826,-0.0761,-0.0825,-0.0766,-0.0736,-0.0904,-0.0902,-0.0873,-0.0867,-0.0926,-0.0927,-0.0928,-0.0928,0,-0.0182,-0.0196,-0.02,-0.0239,-0.026,-0.0299,-0.038,-0.0408,-0.0505,-0.0546,-0.0594,-0.0633,-0.0613,-0.0655,-0.0679,-0.0685,-0.066,-0.0608,-0.0711,-0.0689,-0.0568,-0.0568,-0.0499,-0.0494,-0.049,-0.0486,-0.0483,0,-0.0174,-0.0177,-0.02,-0.0208,-0.0239,-0.0303,-0.0331,-0.0422,-0.0436,-0.0477,-0.0463,-0.0465,-0.0482,-0.0378,-0.044,-0.0447,-0.0456,-0.0445,-0.0603,-0.055,-0.0529,-0.0536,-0.0542,-0.0475,-0.0474,-0.0473,-0.0472,0,-0.0156,-0.017,-0.0174,-0.0188,-0.0217,-0.0227,-0.0277,-0.0281,-0.0356,-0.0416,-0.0347,-0.0347,-0.0273,-0.0285,-0.0257,-0.0274,-0.048,-0.0401,-0.0414,-0.0563,-0.0521,-0.0505,-0.0516,-0.0456,-0.0459,-0.046,-0.0461,0,-0.0151,-0.0144,-0.0151,-0.0166,-0.0172,-0.0152,-0.0189,-0.0183,-0.0211,-0.0269,-0.0202,-0.0199,-0.0217,-0.018,-0.0142,-0.0153,-0.022,-0.0288,-0.0309,-0.0327,-0.0319,-0.0244,-0.0058,0,0,0,0,0,-0.0139,-0.0126,-0.0125,-0.0118,-0.0111,-0.0115,-0.013,-0.0161,-0.0209,-0.015,-0.02,-0.0133,-0.011,-0.0073,-0.0063,-0.0084,-0.0222,-0.0074,-0.0311,-0.0369,-0.0388,-0.0399,0,0,0,0,0,0,-0.0128,-0.0122,-0.0113,-0.0072,-0.0056,-0.0037,-0.0044,-0.0073,-0.0044,-0.0096,-0.006,-0.0122,-0.0072,-0.0108,-0.0054,-0.0057,-0.0206,-0.0081,-0.0081,-0.0359,-0.0376,-0.039,-0.0408,0,0,0,0,0]},{"header":{"parameterUnit":"m.s-1","parameterCategory":2,"la1":30.2991,"la2":30.254,"lo1":-89.0895,"lo2":-89.0444,"dy":0.0017,"dx":0.0017,"nx":28,"ny":28,"refTime":"2025-12-26T09:00:00:Z","depth":"4","parameterNumber":3,"parameterNumberName":"V-component_of_CURRENTS"},"data":[0,0,0,0,0,0,0,0,0,0,0,0,0,0,0,0,0,0,0,0,0,0,0,0,0,0,0,0,0,0,0,0,0,0,0,0,0,0,0,0,0,0,0,0,0,0,0,0,0,0,0,0,0,0,0,0,0,0,-0.0093,-0.0093,0,-0.0125,-0.0125,-0.0126,-0.0108,-0.0107,-0.0106,-0.0105,-0.0117,-0.0118,-0.0119,0,0,0,0,0,0,0,0,0,0,0,0,0,-0.0028,-0.0029,-0.0093,-0.0093,-0.0093,-0.0125,-0.0125,-0.0126,-0.0109,-0.0107,-0.0106,-0.0105,-0.0117,-0.0118,-0.0119,0,0,0,0,0,0,0,0,0,0,0,0,0,-0.0058,-0.0029,-0.0093,-0.0088,-0.0087,-0.0125,-0.0125,-0.0126,-0.0109,-0.0107,-0.0106,-0.0104,-0.0116,-0.0118,-0.012,-0.016,0,0,-0.0125,-0.0126,0,0,0,0,0,0,0,0,-0.0057,-0.0061,-0.0088,-0.0088,-0.0088,-0.011,-0.0107,-0.0136,-0.0109,-0.0102,-0.0105,-0.0104,-0.0113,-0.0115,-0.0126,-0.0161,-0.0161,-0.0125,-0.0126,-0.0127,-0.0128,0,0,0,0,0,0,0,-0.0055,-0.006,-0.0107,-0.0089,-0.0088,-0.0088,-0.009,-0.0112,-0.0116,-0.0102,-0.0101,-0.0103,-0.0113,-0.0125,-0.0126,-0.0161,-0.0125,-0.0127,-0.0128,-0.0129,-0.0223,-0.0224,0,0,0,0,0,0,-0.005,-0.0058,-0.0105,-0.0107,-0.0067,-0.009,-0.0093,-0.0105,-0.0116,-0.0116,-0.0104,-0.0102,-0.0122,-0.0124,-0.0127,-0.0154,-0.0127,-0.0129,-0.013,-0.0221,-0.0223,-0.0225,0,0,0,0,0,0,-0.0049,-0.0054,-0.0104,-0.0082,-0.0088,-0.0092,-0.0106,-0.0107,-0.0115,-0.0118,-0.0117,-0.0111,-0.0121,-0.0124,-0.0155,-0.0155,-0.013,-0.0131,-0.022,-0.0222,-0.0224,-0.0223,0,0,0,0,0,0,-0.0047,-0.0054,-0.0064,-0.0082,-0.0089,-0.0128,-0.0108,-0.0108,-0.0118,-0.0116,-0.0124,-0.0123,-0.012,-0.0153,-0.0157,-0.0157,-0.0133,-0.0218,-0.0221,-0.0223,-0.0221,-0.0225,-0.0228,0,0,0,0,0,-0.0045,-0.0065,-0.0064,-0.007,-0.0101,-0.0128,-0.0132,-0.0131,-0.012,-0.0131,-0.0141,-0.0123,-0.0172,-0.0156,-0.0161,-0.0161,-0.0217,-0.022,-0.0223,-0.022,-0.0224,-0.0227,0,0,0,0,0,0,-0.0045,-0.0066,-0.0065,-0.0091,-0.0107,-0.0125,-0.0136,-0.0136,-0.0155,-0.0152,-0.0149,-0.0151,-0.018,-0.0181,-0.0164,-0.0199,-0.0189,-0.0193,-0.0184,-0.0189,-0.0192,-0.0177,-0.0134,0,0,0,0,0,-0.0049,-0.0069,-0.0086,-0.0108,-0.0116,-0.0127,-0.0138,-0.0141,-0.0157,-0.0163,-0.0173,-0.0184,-0.02,-0.0201,-0.0225,-0.0246,-0.0228,-0.025,-0.0253,-0.0255,-0.0249,-0.0216,-0.0214,-0.0235,-0.0235,-0.0235,0,0,-0.0057,-0.007,-0.0081,-0.0109,-0.0121,-0.0145,-0.013,-0.0152,-0.0177,-0.0164,-0.0202,-0.0206,-0.0214,-0.0238,-0.0249,-0.0233,-0.0246,-0.0259,-0.0261,-0.0253,-0.0219,-0.0216,-0.0214,-0.0237,-0.0237,-0.0236,0,0,-0.0079,-0.0091,-0.0112,-0.013,-0.015,-0.0161,-0.0168,-0.0192,-0.0204,-0.0244,-0.0237,-0.0248,-0.0277,-0.0277,-0.028,-0.0322,-0.0274,-0.0317,-0.0305,-0.0274,-0.027,-0.0267,-0.0257,-0.0253,-0.0304,-0.0304,-0.0304,0,-0.0084,-0.0114,-0.0123,-0.0147,-0.0165,-0.0169,-0.0198,-0.0219,-0.0253,-0.0269,-0.026,-0.0297,-0.03,-0.0313,-0.031,-0.0327,-0.0293,-0.0283,-0.0273,-0.027,-0.0267,-0.0256,-0.0252,-0.0305,-0.0305,-0.0305,-0.0305,0,-0.012,-0.0145,-0.016,-0.0192,-0.0214,-0.0241,-0.0267,-0.0292,-0.0304,-0.032,-0.0349,-0.0352,-0.0356,-0.0359,-0.0338,-0.0317,-0.0297,-0.0287,-0.0252,-0.0264,-0.0254,-0.0249,-0.0305,-0.0305,-0.0305,-0.0305,0,0,-0.0131,-0.0175,-0.0182,-0.0202,-0.024,-0.0263,-0.0306,-0.0345,-0.0368,-0.0389,-0.0412,-0.0419,-0.0389,-0.039,-0.0362,-0.0324,-0.0274,-0.0271,-0.0269,-0.0242,-0.0193,-0.0231,-0.023,-0.0231,-0.023,-0.023,-0.02,0,-0.0156,-0.02,-0.0223,-0.0275,-0.0299,-0.0324,-0.0365,-0.04,-0.0421,-0.0447,-0.044,-0.0447,-0.0409,-0.0382,-0.0342,-0.0292,-0.0257,-0.0283,-0.0203,-0.0202,-0.0217,-0.0224,-0.0226,-0.0196,-0.0195,-0.0194,-0.0193,0,-0.0185,-0.0209,-0.0259,-0.0312,-0.0326,-0.0365,-0.0417,-0.0452,-0.0486,-0.0493,-0.0482,-0.0464,-0.0418,-0.0381,-0.0293,-0.0294,-0.0234,-0.0201,-0.0199,-0.0227,-0.023,-0.0181,-0.0184,-0.0185,-0.0186,-0.0186,-0.0187,0,-0.0183,-0.0239,-0.0277,-0.0297,-0.0357,-0.0393,-0.0425,-0.0471,-0.0493,-0.0501,-0.0495,-0.0461,-0.0422,-0.0348,-0.0275,-0.025,-0.0192,-0.0163,-0.0159,-0.0162,-0.0133,-0.0137,-0.0102,-0.0102,-0.0102,-0.0102,-0.0102,0,-0.0203,-0.0236,-0.0282,-0.0306,-0.0361,-0.04,-0.0455,-0.0479,-0.0505,-0.052,-0.0495,-0.0473,-0.0393,-0.0355,-0.0285,-0.0222,-0.0201,-0.0159,-0.0153,-0.014,-0.0144,-0.0131,-0.0134,-0.0101,-0.0101,-0.0102,-0.0102,0,-0.0208,-0.0235,-0.0281,-0.0341,-0.0365,-0.0404,-0.0465,-0.0491,-0.0505,-0.0514,-0.0498,-0.0459,-0.0392,-0.0363,-0.0265,-0.0237,-0.0184,-0.0171,-0.0191,-0.0187,-0.0167,-0.0171,-0.0137,-0.0138,-0.0139,-0.0139,-0.014,0,-0.0218,-0.0239,-0.0298,-0.0327,-0.0363,-0.0418,-0.0454,-0.0487,-0.0495,-0.0498,-0.0485,-0.044,-0.0409,-0.0324,-0.0284,-0.0221,-0.0203,-0.019,-0.0141,-0.0171,-0.0168,-0.0171,-0.0174,-0.0141,-0.0141,-0.0142,-0.0142,0,-0.0234,-0.0251,-0.0283,-0.0328,-0.0374,-0.0418,-0.0459,-0.0458,-0.0479,-0.0491,-0.0442,-0.041,-0.0366,-0.0303,-0.0288,-0.0231,-0.0206,-0.0198,-0.0194,-0.0147,-0.0176,-0.0173,-0.0175,-0.0145,-0.0144,-0.0144,-0.0144,0,-0.0242,-0.026,-0.0289,-0.0329,-0.0381,-0.0407,-0.0431,-0.043,-0.0436,-0.0429,-0.041,-0.0378,-0.0357,-0.0309,-0.0285,-0.0259,-0.0214,-0.0183,-0.0179,-0.0176,-0.0204,-0.0248,-0.0231,0,0,0,0,0,-0.025,-0.0258,-0.0289,-0.0326,-0.037,-0.0395,-0.0429,-0.044,-0.045,-0.0406,-0.0407,-0.0364,-0.032,-0.0296,-0.0266,-0.0291,-0.0223,-0.0257,-0.0188,-0.0161,-0.0158,-0.0189,0,0,0,0,0,0,-0.0256,-0.0278,-0.0277,-0.0308,-0.0331,-0.0371,-0.0393,-0.0398,-0.0366,-0.0373,-0.0336,-0.0349,-0.0296,-0.0325,-0.0257,-0.0255,-0.0206,-0.0244,-0.0244,-0.0163,-0.016,-0.0157,-0.0188,0,0,0,0,0]}]]